Flight Track Log - Related Links

Times and Time Zones

All times are in EDT time to prevent confusion due to time zone crossing. See the SWA2436 flight status page for this flight to view local times or setup timezone preferences in your user account.

Time Position Orientation Groundspeed Altitude Reporting Facility
EDT Latitude Longitude Course Direction KTS MPH feet Rate Location/Type
08:48PM 28.3500 -81.3167 192° South 219 252 4,300  Level Orlando TRACON
08:49PM 28.3333 -81.3667 249° West 257 296 8,300 3,667 Climbing Orlando TRACON
08:50PM 28.3333 -81.4667 270° West 317 365 12,000 3,000 Climbing Orlando TRACON
08:51PM 28.3356 -81.6167 271° West 320 368 16,000 2,649 Climbing Jacksonville Center
08:52PM 28.3158 -81.7372 260° West 345 397 18,800 2,850 Climbing Jacksonville Center
08:53PM 28.2939 -81.8531 258° West 375 432 21,700 2,750 Climbing Jacksonville Center
08:54PM 28.2719 -81.9806 259° West 390 449 24,300 2,550 Climbing Jacksonville Center
08:55PM 28.2478 -82.1081 258° West 409 471 26,800 2,450 Climbing Jacksonville Center
08:56PM 28.2233 -82.2447 259° West 426 490 29,200 2,550 Climbing Jacksonville Center
08:57PM 28.1989 -82.3744 258° West 431 496 31,900 2,900 Climbing Jacksonville Center
08:58PM 28.1744 -82.4969 257° West 421 484 35,000 3,000 Climbing Jacksonville Center
08:59PM 28.1558 -82.6125 260° West 402 463 37,900 1,754 Climbing Jacksonville Center
09:01PM 28.1192 -82.7997 258° West 352 405 40,000 737 Climbing Miami Center
09:02PM 28.1000 -82.9094 259° West 352 405 40,000  Level Miami Center
09:03PM 28.0767 -83.0186 256° West 352 405 40,000  Level Miami Center
09:04PM 28.0553 -83.1281 258° West 352 405 40,000  Level Miami Center
09:05PM 28.0547 -83.2361 270° West 352 405 40,000  Level Miami Center
09:06PM 28.0814 -83.3411 286° West 340 391 40,000  Level Miami Center
09:07PM 28.1142 -83.4439 290° West 346 398 40,000  Level Miami Center
09:08PM 28.1425 -83.5492 287° West 351 404 40,000  Level Miami Center
09:09PM 28.1711 -83.6519 288° West 351 404 40,000  Level Miami Center
09:10PM 28.2036 -83.7575 289° West 351 404 40,000  Level Miami Center
09:11PM 28.2339 -83.8631 288° West 351 404 40,000  Level Miami Center
09:11PM 28.2461 -83.8986 291° West 351 404 40,000  Level Jacksonville Center
09:12PM 28.2744 -84.0003 288° West 351 404 40,000  Level Jacksonville Center
09:14PM 28.3340 -84.1095 302° West  Level FlightAware Approximate
09:14PM 28.3353 -84.2086 302° West 346 398 40,000  Level Jacksonville Center
09:15PM 28.3633 -84.3103 287° West 346 398 40,000  Level Jacksonville Center
09:16PM 28.3956 -84.4169 289° West 346 398 40,000  Level Jacksonville Center
09:17PM 28.4275 -84.5308 288° West 352 405 40,000  Level Jacksonville Center
09:18PM 28.4575 -84.6350 288° West 347 399 40,000  Level Jacksonville Center
09:19PM 28.4853 -84.7394 287° West 342 394 40,000  Level Jacksonville Center
09:20PM 28.5147 -84.8511 287° West 352 405 40,000  Level Jacksonville Center
09:21PM 28.5486 -84.9511 291° West 347 399 40,000  Level Jacksonville Center
09:22PM 28.5761 -85.0603 286° West 347 399 40,000  Level Jacksonville Center
09:23PM 28.6056 -85.1650 288° West 347 399 40,000  Level Jacksonville Center
09:24PM 28.6372 -85.2697 289° West 347 399 40,000  Level Jacksonville Center
09:25PM 28.6642 -85.3817 285° West 347 399 40,000  Level Jacksonville Center
09:26PM 28.6978 -85.4842 291° West 352 405 40,000  Level Jacksonville Center
09:27PM 28.7247 -85.5892 286° West 352 405 40,000  Level Jacksonville Center
09:28PM 28.7536 -85.6964 287° West 352 405 40,000  Level Jacksonville Center
09:29PM 28.7828 -85.7992 288° West 352 405 40,000  Level Jacksonville Center
09:30PM 28.8094 -85.9042 286° West 347 399 40,000  Level Jacksonville Center
09:31PM 28.8383 -86.0069 288° West 347 399 40,000  Level Jacksonville Center
09:32PM 28.8669 -86.1119 287° West 347 399 40,000  Level Jacksonville Center
09:33PM 28.8956 -86.2172 287° West 347 399 40,000  Level Jacksonville Center
09:34PM 28.9222 -86.3203 286° West 341 392 40,000  Level Jacksonville Center
09:35PM 28.9528 -86.4256 288° West 341 392 40,000  Level Jacksonville Center
09:36PM 28.9811 -86.5333 287° West 346 398 40,000  Level Jacksonville Center
09:37PM 29.0092 -86.6389 287° West 346 398 40,000  Level Jacksonville Center
09:38PM 29.0375 -86.7444 287° West 346 398 40,000  Level Jacksonville Center
09:40PM 29.0844 -86.9256 287° West 344 396 40,000  Level Houston Center
09:41PM 29.1117 -87.0306 287° West 344 396 40,000 -387 Level Houston Center
09:42PM 29.1575 -87.1325 297° West 351 404 39,200 -919 Descending Houston Center
09:43PM 29.2181 -87.2483 301° West 361 415 38,100 -968 Descending Houston Center
09:44PM 29.2717 -87.3472 302° West 364 419 37,200 -927 Descending Houston Center
09:45PM 29.3119 -87.4533 294° West 365 420 36,200 -927 Descending Houston Center
09:46PM 29.3375 -87.5678 284° West 371 427 35,300 -968 Descending Houston Center
09:47PM 29.3636 -87.6936 283° West 372 428 34,200 -968 Descending Houston Center
09:48PM 29.3894 -87.8119 284° West 381 438 33,300 -919 Descending Houston Center
09:50PM 29.4158 -87.9336 284° West 390 449 32,300 -968 Descending Houston Center
09:51PM 29.4436 -88.0583 284° West 400 460 31,300 -927 Descending Houston Center
09:52PM 29.4700 -88.1836 284° West 404 465 30,400 -829 Descending Houston Center
09:53PM 29.4975 -88.3111 284° West 411 473 29,600 -919 Descending Houston Center
09:54PM 29.5297 -88.4608 284° West 427 491 28,500 -774 Descending Houston Center
09:55PM 29.5594 -88.5972 284° West 439 505 28,000 -244 Descending Houston Center
09:56PM 29.5897 -88.7353 284° West 443 510 28,000  Level Houston Center
09:57PM 29.6181 -88.8706 284° West 437 503 28,000  Level Houston Center
09:58PM 29.6456 -89.0067 283° West 437 503 28,000 -919 Level Houston Center
09:59PM 29.6803 -89.1706 284° West 437 503 26,100 -2,634 Descending Houston Center
10:00PM 29.7072 -89.3064 283° West 436 502 22,600 -3,342 Descending Houston Center
10:00PM 29.7178 -89.3497 286° West 429 494 21,700 -3,000 Descending Houston Center
10:01PM 29.7347 -89.4342 283° West 415 478 19,500 -3,148 Descending Houston Center
10:01PM 29.7431 -89.4753 283° West 405 466 18,500 -3,238 Descending Houston Center
10:02PM 29.7744 -89.5542 295° West 409 471 16,100 -3,246 Descending Houston Center
10:02PM 29.7953 -89.5878 306° West 407 468 15,200 -3,100 Descending Houston Center
10:03PM 29.8408 -89.6564 307° West 403 464 13,000 -2,700 Descending Houston Center
10:03PM 29.8614 -89.6856 309° West 379 436 12,500 -2,381 Descending Houston Center
10:04PM 29.9033 -89.7478 308° West 375 432 10,500 -2,239 Descending Houston Center
10:04PM 29.9297 -89.7878 307° West 338 389 10,000 -1,600 Descending Houston Center
10:05PM 29.9583 -89.8289 309° West 336 387 8,900 -1,881 Descending Houston Center
10:05PM 29.9847 -89.8694 307° West 299 344 7,900 -1,839 Descending Houston Center
10:06PM 30.0103 -89.9053 309° West 310 357 7,000 -2,060 Descending Houston Center
10:06PM 30.0439 -89.9558 308° West 292 336 5,600 -2,066 Descending Houston Center
10:07PM 30.0606 -89.9803 308° West 298 343 4,900 -1,900 Descending Houston Center
10:07PM 30.0925 -90.0306 306° West 290 334 3,700 -2,226 Descending Houston Center
10:08PM 30.1200 -90.0672 311° West 292 336 2,600 -1,527 Descending Houston Center
10:08PM 30.1364 -90.0961 303° West 278 320 2,300 -590 Descending Houston Center
10:09PM 30.1661 -90.1361 311° West 282 325 2,000 -269 Descending Houston Center
10:10PM 30.1761 -90.1642 292° West 228 262 2,000 -95 Level Houston Center
10:10PM 30.1647 -90.1878 241° Southwest 226 260 1,900  Descending Houston Center
10:11PM 30.1394 -90.2017 205° Southwest 143 165 2,000  Climbing Houston Center
10:11PM 30.1244 -90.2089 203° Southwest 183 211 1,900  Descending Houston Center
10:12PM 30.1044 -90.2150 195° South 131 151 2,000 -295 Climbing Houston Center
10:12PM 30.0894 -90.2189 193° South 154 177 1,600 -689 Descending Houston Center
10:13PM 30.0733 -90.2236 194° South 106 122 1,300 -484 Descending Houston Center
10:13PM 30.0606 -90.2275 195° South 126 145 1,100 -333 Descending Houston Center

Login

Don't have an account? Register now (free) for customized features, flight alerts, and more!